Home   Weather   Melbourne   Past weeks
Flag for USA

Past Weather in Melbourne, Tennessee, USA — Yesterday and Last 2 Weeks

Now
72 °F

Partly sunny.


Feels Like: 77 °F
Forecast: 74 / 48 °F
Wind: 10 mph from Northeast

Location: McGhee Tyson Airport

Current Time: Apr 4, 2020 at 2:16:20 pm

Latest Report: Apr 4, 2020 at 1:53 pm


Visibility: 10 mi

Pressure: 29.98 "Hg

Humidity: 33%

Dew Point: 41 °F

Location of MelbourneLocation

Past Weather in Melbourne — Graph

°F

Melbourne Temperature Yesterday

Maximum temperature yesterday: 70 °F (at 4:53 pm)
Minimum temperature yesterday: 39 °F (at 7:53 am)
Average temperature yesterday: 56 °F

High & Low Weather Summary for the Past Weeks

 TemperatureHumidityPressure
High82 °F (Mar 27, 2:53 pm)97% (Mar 20, 5:03 pm)30.41 "Hg (Mar 20, 5:03 pm)
Low36 °F (Apr 2, 6:53 am)24% (Mar 29, 4:53 pm)29.68 "Hg (Mar 31, 2:53 pm)
Average57 °F72%30.01 "Hg
* Reported Mar 20 12:32 pm — Apr 4 12:53 pm, Melbourne. Weather by CustomWeather, © 2020

Note: Actual official high and low records may vary slightly from our data, if they occured in-between our weather recording intervals... More about our weather records

Melbourne Weather History for the Previous 24 Hours

Scroll right to see more
 ConditionsComfort  
Time TempWeatherWind HumidityBarometerVisibility
12:53 pm
Sat, Apr 4
68 °FBroken clouds.10 mph35%30.00 "Hg10 mi
11:53 am63 °FPartly sunny.8 mph43%30.03 "Hg10 mi
10:53 am61 °FBroken clouds.7 mph56%30.03 "Hg10 mi
9:53 am55 °FPartly sunny.6 mph64%30.03 "Hg10 mi
8:53 am52 °FOvercast.8 mph72%30.02 "Hg10 mi
7:53 am50 °FBroken clouds.3 mph80%29.99 "Hg10 mi
6:53 am50 °FPassing clouds.3 mph83%29.98 "Hg10 mi
5:53 am51 °FMostly cloudy.5 mph71%29.98 "Hg10 mi
4:53 am53 °FOvercast.No wind66%29.96 "Hg10 mi
3:53 am51 °FOvercast.No wind71%29.96 "Hg10 mi
2:53 am48 °FClear.5 mph80%29.95 "Hg10 mi
1:53 am53 °FClear.No wind64%29.96 "Hg10 mi
12:53 am55 °FPassing clouds.No wind64%29.96 "Hg10 mi
11:53 pm
Fri, Apr 3
57 °FPassing clouds.3 mph53%29.96 "Hg10 mi
10:53 pm61 °FPassing clouds.No wind39%29.97 "Hg10 mi
9:53 pm63 °FPassing clouds.5 mph34%29.96 "Hg10 mi
8:53 pm65 °FPassing clouds.3 mph32%29.96 "Hg10 mi
7:53 pm68 °FPartly sunny.No wind25%29.96 "Hg10 mi
6:53 pm70 °FScattered clouds.6 mph26%29.95 "Hg10 mi
5:53 pm70 °FScattered clouds.9 mph26%29.96 "Hg10 mi
4:53 pm70 °FScattered clouds.8 mph25%29.97 "Hg10 mi
3:53 pm69 °FScattered clouds.3 mph26%29.99 "Hg10 mi
2:53 pm68 °FScattered clouds.6 mph30%30.01 "Hg10 mi
Weather by CustomWeather, © 2020

See weather overview

Advertising